Location: Risskov
(56.1972°N, 10.2480°E)
Time: 00:29:00
(UTC+00:00)

EO 1 Del DPAF - Pass Details

Date: 05 July 2020
Orbit: 512 x 518 km, 98.0° (Epoch: 03 August)

Event Time Altitude Azimuth Distance (km) Brightness Sun altitude
Rises 22:35:24 0° 15° (NNE) 2,650 8.1 -10.5°
Reaches altitude 10° 22:37:30 10° 14° (NNE) 1,756 7.0 -10.5°
Maximum altitude 22:41:17 82° 288° (WNW) 528 3.2 -10.6°
Enters shadow 22:44:43 12° 201° (SSW) 1,606 5.2 -10.7°
